TimeEST,TemperatureF,Dew PointF,Humidity,Sea Level PressureIn,VisibilityMPH,Wind Direction,Wind SpeedMPH,Gust SpeedMPH,PrecipitationIn,Events,Conditions,WindDirDegrees,DateUTC
12:00 AM,39.2,19.4,45,30.24,10.0,Calm,Calm,-,N/A,,Clear,0,2003-12-29 05:00:00
12:20 AM,39.2,19.4,45,30.24,10.0,South,3.5,-,N/A,,Clear,180,2003-12-29 05:20:00
12:40 AM,37.4,17.6,45,30.23,10.0,SSE,3.5,-,N/A,,Clear,160,2003-12-29 05:40:00
1:00 AM,39.2,19.4,45,30.23,10.0,Calm,Calm,-,N/A,,Clear,0,2003-12-29 06:00:00
1:20 AM,39.2,19.4,45,30.22,10.0,SSW,3.5,-,N/A,,Clear,200,2003-12-29 06:20:00
1:40 AM,39.2,19.4,45,30.22,10.0,Calm,Calm,-,N/A,,Clear,0,2003-12-29 06:40:00
2:00 AM,39.2,19.4,45,30.22,10.0,South,3.5,-,N/A,,Clear,180,2003-12-29 07:00:00
2:20 AM,39.2,17.6,42,30.21,10.0,Calm,Calm,-,N/A,,Clear,0,2003-12-29 07:20:00
2:40 AM,39.2,17.6,42,30.22,10.0,Calm,Calm,-,N/A,,Clear,0,2003-12-29 07:40:00
3:00 AM,37.4,17.6,45,30.21,10.0,Calm,Calm,-,N/A,,Clear,0,2003-12-29 08:00:00
3:20 AM,37.4,17.6,45,30.22,10.0,Calm,Calm,-,N/A,,Clear,0,2003-12-29 08:20:00
3:40 AM,39.2,17.6,42,30.22,10.0,South,3.5,-,N/A,,Clear,180,2003-12-29 08:40:00
4:02 AM,37.4,17.6,45,30.21,10.0,Calm,Calm,-,N/A,,Clear,0,2003-12-29 09:02:00
4:20 AM,39.2,17.6,42,30.20,10.0,Calm,Calm,-,N/A,,Clear,0,2003-12-29 09:20:00
4:40 AM,39.2,17.6,42,30.20,10.0,SW,3.5,-,N/A,,Clear,220,2003-12-29 09:40:00
5:00 AM,39.2,15.8,39,30.20,10.0,South,3.5,-,N/A,,Clear,190,2003-12-29 10:00:00
5:20 AM,37.4,17.6,45,30.19,10.0,SSE,4.6,-,N/A,,Clear,150,2003-12-29 10:20:00
5:40 AM,39.2,17.6,42,30.19,10.0,ESE,3.5,-,N/A,,Clear,120,2003-12-29 10:40:00
6:00 AM,39.2,17.6,42,30.18,10.0,SE,4.6,-,N/A,,Clear,140,2003-12-29 11:00:00
6:20 AM,39.2,17.6,42,30.18,10.0,SSE,4.6,-,N/A,,Clear,150,2003-12-29 11:20:00
6:40 AM,39.2,17.6,42,30.18,10.0,SE,4.6,-,N/A,,Clear,130,2003-12-29 11:40:00
7:00 AM,39.2,17.6,42,30.18,10.0,SE,5.8,-,N/A,,Clear,140,2003-12-29 12:00:00
7:22 AM,39.2,17.6,42,30.18,10.0,SE,4.6,-,N/A,,Clear,140,2003-12-29 12:22:00
7:40 AM,39.2,15.8,39,30.18,10.0,SE,4.6,-,N/A,,Clear,140,2003-12-29 12:40:00
8:02 AM,41.0,15.8,36,30.19,10.0,SE,3.5,-,N/A,,Clear,130,2003-12-29 13:02:00
8:20 AM,41.0,15.8,36,30.19,10.0,SE,3.5,-,N/A,,Clear,140,2003-12-29 13:20:00
8:40 AM,42.8,15.8,34,30.20,10.0,SE,3.5,-,N/A,,Clear,140,2003-12-29 13:40:00
9:05 AM,44.6,15.8,31,30.20,10.0,SE,4.6,-,N/A,,Clear,130,2003-12-29 14:05:00
9:20 AM,44.6,15.8,31,30.20,10.0,SSE,5.8,-,N/A,,Clear,150,2003-12-29 14:20:00
9:40 AM,46.4,17.6,32,30.20,10.0,SE,3.5,-,N/A,,Clear,130,2003-12-29 14:40:00
10:00 AM,48.2,19.4,32,30.20,10.0,SE,3.5,-,N/A,,Clear,130,2003-12-29 15:00:00
10:20 AM,50.0,23.0,35,30.18,10.0,SE,5.8,-,N/A,,Clear,130,2003-12-29 15:20:00
10:40 AM,51.8,23.0,33,30.17,10.0,SE,6.9,-,N/A,,Clear,130,2003-12-29 15:40:00
11:00 AM,50.0,24.8,37,30.16,10.0,SSE,4.6,-,N/A,,Clear,150,2003-12-29 16:00:00
11:22 AM,50.0,26.6,40,30.14,10.0,ESE,4.6,-,N/A,,Clear,120,2003-12-29 16:22:00
11:40 AM,51.8,28.4,41,30.13,10.0,SSE,5.8,-,N/A,,Clear,160,2003-12-29 16:40:00
12:00 PM,51.8,30.2,44,30.12,10.0,South,4.6,-,N/A,,Clear,180,2003-12-29 17:00:00
12:23 PM,51.8,32.0,47,30.11,10.0,SSE,10.4,16.1,N/A,,Clear,160,2003-12-29 17:23:00
12:40 PM,55.4,33.8,44,30.10,10.0,SSE,8.1,-,N/A,,Clear,160,2003-12-29 17:40:00
1:00 PM,55.4,33.8,44,30.09,10.0,SSE,5.8,-,N/A,,Clear,160,2003-12-29 18:00:00
1:20 PM,53.6,33.8,47,30.08,10.0,SSE,8.1,-,N/A,,Clear,160,2003-12-29 18:20:00
1:40 PM,55.4,33.8,44,30.07,10.0,South,10.4,21.9,N/A,,Clear,180,2003-12-29 18:40:00
2:00 PM,53.6,33.8,47,30.07,10.0,South,8.1,21.9,N/A,,Clear,170,2003-12-29 19:00:00
2:20 PM,53.6,33.8,47,30.06,10.0,SSE,3.5,16.1,N/A,,Clear,150,2003-12-29 19:20:00
2:40 PM,53.6,33.8,47,30.05,10.0,SSE,9.2,17.3,N/A,,Clear,160,2003-12-29 19:40:00
3:00 PM,51.8,35.6,54,30.05,10.0,South,9.2,23.0,N/A,,Clear,170,2003-12-29 20:00:00
3:20 PM,50.0,35.6,58,30.05,10.0,South,11.5,23.0,N/A,,Clear,170,2003-12-29 20:20:00
3:40 PM,50.0,35.6,58,30.05,10.0,SSE,10.4,25.3,N/A,,Clear,160,2003-12-29 20:40:00
4:01 PM,50.0,37.4,62,30.06,10.0,South,8.1,-,N/A,,Clear,170,2003-12-29 21:01:00
4:20 PM,50.0,37.4,62,30.06,10.0,SSE,6.9,25.3,N/A,,Clear,160,2003-12-29 21:20:00
4:40 PM,48.2,37.4,66,30.07,10.0,SSE,3.5,-,N/A,,Scattered Clouds,150,2003-12-29 21:40:00
5:00 PM,48.2,37.4,66,30.07,10.0,South,10.4,18.4,N/A,,Scattered Clouds,170,2003-12-29 22:00:00
5:20 PM,48.2,37.4,66,30.05,10.0,South,10.4,17.3,N/A,,Clear,170,2003-12-29 22:20:00
5:40 PM,48.2,37.4,66,30.05,10.0,SSE,10.4,21.9,N/A,,Clear,160,2003-12-29 22:40:00
6:00 PM,48.2,39.2,71,30.05,10.0,South,9.2,-,N/A,,Scattered Clouds,170,2003-12-29 23:00:00
6:20 PM,48.2,39.2,71,30.05,10.0,SSE,8.1,-,N/A,,Scattered Clouds,160,2003-12-29 23:20:00
6:40 PM,46.4,37.4,71,30.05,10.0,SSE,6.9,-,N/A,,Scattered Clouds,150,2003-12-29 23:40:00
7:02 PM,46.4,39.2,76,30.05,10.0,SSE,8.1,19.6,N/A,,Scattered Clouds,160,2003-12-30 00:02:00
7:20 PM,44.6,37.4,76,30.05,10.0,South,11.5,23.0,N/A,,Scattered Clouds,170,2003-12-30 00:20:00
7:40 PM,44.6,39.2,81,30.04,10.0,SSE,5.8,17.3,N/A,,Clear,160,2003-12-30 00:40:00
8:00 PM,44.6,39.2,81,30.03,10.0,SSE,10.4,20.7,N/A,,Clear,160,2003-12-30 01:00:00
8:20 PM,44.6,39.2,81,30.04,10.0,SSE,12.7,20.7,N/A,,Clear,160,2003-12-30 01:20:00
8:42 PM,44.6,37.4,76,30.03,10.0,SSE,11.5,20.7,N/A,,Clear,160,2003-12-30 01:42:00
9:00 PM,44.6,37.4,76,30.04,10.0,SSE,9.2,23.0,N/A,,Scattered Clouds,160,2003-12-30 02:00:00
9:20 PM,44.6,37.4,76,30.02,10.0,SSE,11.5,21.9,N/A,,Scattered Clouds,160,2003-12-30 02:20:00
9:40 PM,44.6,37.4,76,30.00,10.0,SSE,9.2,24.2,N/A,,Scattered Clouds,160,2003-12-30 02:40:00
10:00 PM,44.6,37.4,76,30.02,10.0,SSE,8.1,21.9,N/A,,Mostly Cloudy,160,2003-12-30 03:00:00
10:20 PM,44.6,37.4,76,30.02,10.0,South,4.6,-,N/A,,Overcast,190,2003-12-30 03:20:00
10:40 PM,46.4,39.2,76,29.99,10.0,SW,3.5,-,N/A,,Overcast,220,2003-12-30 03:40:00
11:00 PM,46.4,41.0,81,29.99,10.0,Calm,Calm,-,N/A,,Overcast,0,2003-12-30 04:00:00
11:20 PM,46.4,39.2,76,29.97,10.0,South,5.8,-,N/A,,Overcast,180,2003-12-30 04:20:00
11:42 PM,46.4,41.0,81,29.96,10.0,SSE,9.2,24.2,N/A,,Overcast,160,2003-12-30 04:42:00